カタログに戻る

STARLINK-36905

運用中通信VLEO
NORAD 68176·PAYLOAD·🇺🇸 United States

打ち上げ Mar 14, 2026 から Vandenberg Space Force Base

Loading…

次のパス (今後24時間)

TLE

最新Source: CelesTrak SupGP

元期: Sep 15, 2026, 03:05 UTC

1 68176C 26050K   26258.12895833 -.00001948  00000+0 -57543-4 0  2582
2 68176  53.1566 103.0096 0001194  88.0563 171.1751 15.34391094    13

AllMySatでSTARLINK-36905をリアルタイム追跡

Download on the App Store